TimeEDT,TemperatureF,Dew PointF,Humidity,Sea Level PressureIn,VisibilityMPH,Wind Direction,Wind SpeedMPH,Gust SpeedMPH,PrecipitationIn,Events,Conditions,WindDirDegrees,DateUTC
12:56 AM,71.1,69.1,93,30.14,10.0,SSE,3.5,-,N/A,,Clear,150,2014-05-15 04:56:00
1:56 AM,71.1,68.0,90,30.13,10.0,SSE,4.6,-,N/A,,Clear,160,2014-05-15 05:56:00
2:56 AM,70.0,68.0,93,30.10,10.0,SSE,4.6,-,N/A,,Clear,150,2014-05-15 06:56:00
3:56 AM,71.1,68.0,90,30.10,10.0,South,3.5,-,N/A,,Clear,170,2014-05-15 07:56:00
4:56 AM,71.1,69.1,93,30.10,10.0,South,4.6,-,N/A,,Scattered Clouds,170,2014-05-15 08:56:00
5:56 AM,71.1,68.0,90,30.10,10.0,South,6.9,-,N/A,,Clear,170,2014-05-15 09:56:00
6:56 AM,73.0,68.0,84,30.11,10.0,SSE,5.8,-,N/A,,Clear,160,2014-05-15 10:56:00
7:56 AM,75.0,69.1,82,30.11,10.0,SSE,8.1,-,N/A,,Clear,150,2014-05-15 11:56:00
8:56 AM,78.1,69.1,74,30.11,10.0,SSE,16.1,21.9,N/A,,Clear,150,2014-05-15 12:56:00
9:56 AM,79.0,68.0,69,30.10,10.0,South,16.1,26.5,N/A,,Partly Cloudy,170,2014-05-15 13:56:00
10:56 AM,81.0,66.9,62,30.09,10.0,SSE,18.4,26.5,N/A,,Mostly Cloudy,150,2014-05-15 14:56:00
11:56 AM,81.0,68.0,65,30.07,10.0,SE,21.9,26.5,N/A,,Scattered Clouds,140,2014-05-15 15:56:00
12:56 PM,82.0,68.0,62,30.06,10.0,SSE,25.3,33.4,N/A,,Scattered Clouds,150,2014-05-15 16:56:00
1:56 PM,81.0,69.1,67,30.04,10.0,SSE,25.3,34.5,N/A,,Mostly Cloudy,150,2014-05-15 17:56:00
2:06 PM,80.1,69.1,69,30.04,10.0,SSE,20.7,35.7,N/A,,Mostly Cloudy,150,2014-05-15 18:06:00
2:16 PM,80.1,69.1,69,30.03,10.0,SSE,23.0,32.2,N/A,,Mostly Cloudy,150,2014-05-15 18:16:00
2:56 PM,80.1,70.0,71,30.04,10.0,SSE,15.0,29.9,N/A,,Scattered Clouds,160,2014-05-15 18:56:00
3:56 PM,79.0,69.1,72,30.02,10.0,South,17.3,26.5,N/A,,Mostly Cloudy,170,2014-05-15 19:56:00
4:56 PM,78.1,69.1,74,30.00,10.0,SSE,19.6,24.2,N/A,,Overcast,160,2014-05-15 20:56:00
5:56 PM,77.0,69.1,76,29.99,10.0,SSE,16.1,28.8,N/A,,Overcast,160,2014-05-15 21:56:00
6:56 PM,77.0,69.1,76,29.97,10.0,SSE,17.3,26.5,N/A,,Mostly Cloudy,160,2014-05-15 22:56:00
7:56 PM,75.9,69.1,79,29.97,10.0,SSE,13.8,23.0,N/A,,Mostly Cloudy,160,2014-05-15 23:56:00
8:56 PM,75.9,70.0,82,29.96,10.0,South,18.4,21.9,0.00,,Mostly Cloudy,170,2014-05-16 00:56:00
9:56 PM,75.9,70.0,82,29.96,10.0,SSE,18.4,25.3,N/A,,Partly Cloudy,160,2014-05-16 01:56:00
10:56 PM,75.0,70.0,84,29.95,10.0,South,17.3,24.2,0.00,,Mostly Cloudy,170,2014-05-16 02:56:00
11:56 PM,75.0,70.0,84,29.94,10.0,South,13.8,25.3,0.00,,Mostly Cloudy,170,2014-05-16 03:56:00